Вернуться в каталог

STARLINK-36168

АктивенСвязьSSO
NORAD 68677·PAYLOAD·🇺🇸 United States

Запущен Apr 11, 2026 с Vandenberg Space Force Base

Loading…

Ближайшие Пролёты (ближайшие 24 часа)

TLE

СвежийSource: CelesTrak SupGP

Эпоха: Sep 14, 2026, 22:41 UTC

1 68677C 26077R   26257.94562500  .00056282  00000+0  17477-2 0  2576
2 68677  97.2845 127.9362 0001742  96.2287 240.3241 15.33400521    10

Отслеживайте STARLINK-36168 в реальном времени с AllMySat

Download on the App Store